Location: Melbourne
(37.8666°S, 145.1333°E)
Time: 16:23:49
(UTC+10:00)

Iridium 21 - Visible Passes

Search period start: 02 October 2014 00:00
Search period end: 12 October 2014 01:00
Orbit: 776 x 779 km, 86.4° (Epoch: 01 October)

Date Brightness Start Highest point End Pass type
(mag) Time Alt. Az. Time Alt. Az. Time Alt. Az.
04 Oct 8.3 05:03:19 10° NE 05:07:23 23° E 05:11:28 10° SSE visible
04 Oct 8.9 18:56:40 10° SW 18:59:44 16° W 19:02:48 10° WNW visible
05 Oct 9.0 05:32:09 10° E 05:34:12 12° ESE 05:36:15 10° SE visible
07 Oct 7.6 06:02:40 10° NNE 06:07:19 34° E 06:12:02 10° SSE visible
07 Oct 9.4 19:58:46 10° WSW 19:59:35 10° WSW 20:00:25 10° W visible
08 Oct 8.5 05:30:35 10° ENE 05:34:04 18° E 05:37:35 10° SE visible
10 Oct 6.7 06:02:17 10° NNE 06:07:18 49° E 06:12:24 10° SSE visible
11 Oct 7.9 05:29:41 10° NE 05:33:59 26° E 05:38:19 10° SSE visible
